GFSFLT2_250_spd_060.txt.gz
Wind_Speed
109 102 98 93 90 84 77 75 68 59 54 51 49 47 43 38 36 34 33 32 32 32 30 27 24 18 27
101 96 89 84 81 80 77 70 62 55 51 48 46 43 39 35 33 33 35 34 35 33 32 30 26 21 23
94 82 81 78 77 80 72 68 59 53 49 46 43 41 40 38 36 38 39 39 38 37 35 32 31 27 24
83 77 73 72 74 74 72 64 56 52 49 46 46 45 45 45 44 43 42 41 41 41 40 39 37 34 32
72 70 68 70 73 73 71 64 57 53 52 51 50 49 50 49 49 48 48 48 48 47 46 45 43 41 39
65 66 66 70 71 72 68 64 60 57 55 57 57 56 54 53 53 55 56 56 55 54 52 50 49 48 48
65 62 67 68 72 69 67 63 62 60 58 56 57 58 59 59 60 61 61 59 58 57 56 55 55 55 55
62 65 66 67 69 68 69 66 64 62 62 60 60 62 62 62 61 62 61 59 58 58 58 60 61 62 63
63 65 64 68 69 70 73 70 69 65 65 63 65 66 64 63 63 62 61 59 58 60 63 65 67 68 67
65 65 67 71 70 72 75 72 71 70 66 64 67 63 62 63 62 62 61 60 61 65 68 70 71 67 60
64 66 69 71 72 75 75 75 74 73 66 68 64 63 64 64 64 64 63 63 66 69 71 70 63 58 58
67 67 70 72 76 78 76 79 74 68 71 65 65 65 64 64 64 64 65 65 68 69 66 60 58 57 56
67 71 74 76 77 76 79 76 68 71 67 68 67 65 65 67 71 68 69 68 64 58 56 58 57 54 52
71 74 75 77 76 78 75 69 71 66 68 67 67 69 71 72 72 71 68 63 54 53 54 55 53 50 48
73 73 74 76 75 70 70 69 65 64 67 69 69 68 68 70 71 69 62 51 51 52 51 52 50 41 41
72 74 75 70 69 69 64 62 62 67 68 66 65 66 68 72 67 61 52 51 50 51 50 50 44 33 36
72 67 66 67 64 61 61 62 65 67 66 65 66 66 66 64 63 54 53 50 48 48 49 44 35 29 31

GFSFLT2_250_spd_063.txt.gz
Wind_Speed
102 105 111 107 97 99 88 84 78 73 72 66 63 56 48 45 40 39 36 34 32 32 32 30 31 31 32
107 105 100 97 91 81 79 72 69 68 67 65 62 55 47 46 44 42 40 39 38 37 34 32 30 31 30
100 98 92 84 81 77 70 66 64 65 65 65 62 54 49 47 47 47 46 44 42 40 37 35 34 33 31
91 85 81 81 77 73 62 61 63 62 63 62 60 57 52 49 48 47 46 46 46 45 44 43 42 40 38
84 81 81 78 74 64 60 62 59 62 62 64 60 58 56 54 54 51 50 49 48 48 48 48 47 45 43
87 82 78 76 65 60 59 61 62 63 62 63 64 62 58 57 57 56 55 53 52 51 49 49 49 48 46
80 75 73 61 58 57 60 62 61 63 64 65 63 64 63 61 58 55 54 56 54 52 51 51 50 50 49
72 68 59 57 55 60 61 64 65 64 65 68 68 69 66 63 60 56 57 54 51 53 53 52 51 52 52
60 56 54 53 59 63 62 64 64 67 68 69 71 70 69 66 61 61 57 53 55 54 53 53 55 56 57
55 49 53 61 61 64 64 66 68 65 69 72 70 70 72 66 63 62 58 60 57 55 54 56 58 59 60
48 54 60 62 63 63 68 67 65 68 73 71 71 72 67 65 63 60 60 60 60 59 61 63 63 63 64
56 59 60 62 64 66 65 66 68 73 71 73 72 66 66 62 61 61 62 62 62 61 63 63 63 63 63
58 58 62 66 64 64 66 69 71 69 72 70 66 65 60 61 65 62 62 61 60 62 64 64 62 57 54
61 65 65 66 64 66 67 68 71 69 64 65 62 60 60 63 66 66 65 67 66 63 62 56 53 51 52
62 64 62 64 65 65 69 73 65 62 63 61 60 61 63 66 69 69 69 68 64 58 52 55 55 50 51
60 63 64 64 65 69 71 66 65 64 62 61 61 64 66 70 70 70 67 64 56 52 52 53 58 50 47
62 63 64 67 71 69 67 66 63 64 63 64 65 67 70 71 73 68 65 57 53 52 49 50 53 53 45

GFSFLT2_250_spd_069.txt.gz
Wind_Speed
99 97 93 92 91 90 86 83 81 76 73 71 67 67 65 66 57 49 49 50 49 47 45 44 41 40 39
101 97 93 91 89 88 86 83 77 73 71 68 69 72 65 60 54 49 49 48 49 49 47 48 47 44 41
99 97 94 92 89 87 80 79 75 71 73 72 78 70 67 59 49 47 51 51 51 49 50 50 50 48 44
100 97 95 91 85 81 77 75 74 73 76 75 71 67 58 48 45 46 50 51 52 49 52 51 54 48 45
105 99 91 85 82 78 76 76 74 76 79 72 69 59 53 45 45 47 50 53 51 52 52 52 54 50 49
93 88 84 81 78 76 74 76 75 79 79 66 62 52 48 45 48 50 53 53 53 55 51 54 54 52 50
85 83 80 76 75 74 76 77 75 67 64 62 53 45 47 48 47 53 55 54 55 54 55 57 54 54 48
80 77 75 72 69 71 68 65 63 60 55 52 48 47 46 47 50 56 55 56 58 57 59 58 57 52 50
71 71 69 67 66 62 60 57 58 56 53 49 47 46 47 50 54 56 56 59 59 60 60 59 53 51 46
64 62 61 60 56 54 53 54 53 53 49 50 49 50 52 53 55 59 61 62 61 63 62 58 55 50 48
58 57 56 53 51 51 52 50 50 49 49 48 50 51 53 55 56 60 63 62 64 62 63 58 56 52 52
51 49 47 47 48 48 44 42 45 47 47 50 51 52 55 59 63 63 62 65 64 64 61 60 55 56 56
42 43 43 42 41 40 42 44 46 49 52 52 54 57 58 64 63 63 64 65 64 60 59 58 58 59 60
40 39 39 39 39 41 43 44 46 50 54 56 58 61 65 65 65 64 64 62 60 60 62 62 61 61 62
36 36 39 39 40 41 43 46 49 52 56 59 61 62 65 66 66 65 63 61 61 63 65 65 63 61 61
32 33 36 38 41 43 46 50 53 54 57 61 62 63 64 65 66 67 66 66 64 63 62 62 62 59 60
36 37 39 41 44 45 48 53 55 56 58 60 63 66 69 69 68 68 67 64 63 63 62 60 63 63 59

GFSFLT2_250_spd_072.txt.gz
Wind_Speed
113 107 108 105 101 100 95 94 88 86 85 82 75 69 65 61 56 63 68 58 50 39 39 42 41 40 38
108 111 106 104 101 98 92 90 89 87 82 78 72 67 62 59 61 61 63 56 49 37 41 41 43 42 40
110 108 103 100 97 95 94 93 89 86 81 76 71 66 60 59 63 64 62 49 42 39 40 43 44 42 42
106 104 101 98 97 96 92 88 84 80 75 69 65 66 63 61 63 61 53 48 42 42 41 43 45 44 45
103 101 99 96 93 90 86 85 79 76 73 69 67 66 62 64 64 56 49 45 43 44 43 45 45 45 46
99 95 92 88 86 84 81 77 74 72 69 69 65 62 61 57 54 50 44 42 44 44 45 48 47 47 49
91 89 85 81 78 76 76 74 68 69 66 62 60 58 57 53 48 45 44 43 42 43 48 50 48 50 52
87 83 80 75 73 71 68 65 64 62 59 58 57 54 51 47 45 43 43 43 44 46 50 51 51 54 53
78 74 72 69 67 65 63 60 58 56 54 53 51 47 45 43 42 42 44 45 47 51 53 53 54 56 54
71 68 65 62 61 59 57 54 52 51 50 47 46 44 43 42 41 41 43 47 51 51 51 54 58 56 57
57 53 52 51 49 48 48 46 46 44 43 39 39 40 41 43 43 44 47 48 50 53 54 59 59 60 59
44 42 40 38 38 38 38 34 34 33 32 34 37 39 41 43 46 48 50 53 56 57 61 62 61 62 62
36 34 32 30 29 28 28 31 33 32 34 37 40 42 43 45 49 52 54 58 59 61 63 64 64 62 59
31 31 31 29 29 30 32 35 35 37 39 41 43 44 46 48 52 53 56 59 61 64 65 63 61 61 61
32 30 29 31 34 35 36 38 38 39 40 42 43 46 49 53 57 58 60 60 61 64 66 65 63 62 61
30 29 30 30 31 32 33 35 37 39 41 44 47 51 54 58 60 61 62 64 64 65 65 65 64 62 61
30 30 30 31 32 34 36 38 41 44 46 47 50 53 58 63 64 66 67 66 65 64 63 63 64 59 59

GFSFLT2_250_spd_078.txt.gz
Wind_Speed
126 127 130 130 138 140 141 142 138 133 126 120 111 97 87 78 74 70 67 65 63 58 54 50 49 46 44
132 132 132 139 146 146 137 141 133 128 121 111 96 86 80 74 70 66 65 61 58 58 56 50 49 46 45
142 138 144 153 155 150 142 131 123 118 105 96 89 81 75 70 65 63 61 61 58 56 55 53 49 47 47
144 149 151 154 150 138 131 123 113 100 93 88 80 75 70 67 64 61 60 60 58 57 54 52 49 46 45
151 150 160 162 142 128 115 105 99 95 88 82 76 70 66 63 61 60 57 56 54 52 52 50 48 46 43
159 161 166 136 119 109 103 99 98 90 83 74 67 64 61 60 58 57 53 53 50 48 48 47 45 44 42
156 149 127 113 106 104 101 97 89 79 70 65 60 57 56 54 52 51 49 48 47 44 43 42 42 41 40
132 120 111 106 102 97 93 83 74 69 63 58 54 53 51 50 48 46 44 43 41 41 39 38 38 38 40
112 109 102 96 91 82 73 67 61 55 52 49 45 44 42 42 41 39 38 39 37 36 35 36 36 38 42
101 96 91 82 73 67 61 53 48 46 43 41 38 35 31 32 33 34 34 34 34 33 33 34 36 39 41
86 80 73 67 60 54 49 46 44 42 38 35 30 26 28 30 30 31 32 33 33 34 36 36 38 41 43
72 66 60 54 50 48 45 42 37 34 32 30 29 29 27 29 31 31 33 34 34 34 34 36 39 42 45
60 56 52 50 47 43 41 37 34 32 30 27 27 27 28 29 29 30 32 34 36 38 40 41 42 45 49
54 52 49 47 43 39 34 32 32 31 30 31 31 31 32 32 33 34 35 37 39 42 44 45 47 49 51
51 48 45 42 38 35 33 30 29 30 29 30 31 31 31 32 33 36 37 38 41 43 44 46 49 51 53
46 45 43 40 35 32 32 32 30 29 28 29 29 30 33 35 36 36 38 41 43 44 46 50 51 53 58
43 43 40 37 37 34 32 31 31 32 32 31 31 33 36 37 39 40 40 41 44 46 49 53 58 60 64

GFSFLT2_250_spd_084.txt.gz
Wind_Speed
107 107 108 106 109 106 105 109 103 111 121 124 136 139 140 137 148 139 131 98 88 77 65 56 49 42 41
108 108 111 108 108 106 109 102 117 117 124 138 142 146 147 145 153 133 108 95 84 72 63 52 48 43 38
109 107 112 112 111 111 111 113 122 138 139 135 143 142 151 145 140 122 99 93 78 62 51 44 42 40 39
113 116 115 114 117 108 122 127 138 139 139 139 135 144 145 146 140 104 97 82 65 55 46 41 39 39 40
116 117 113 122 127 135 137 136 145 139 142 140 143 146 146 137 117 101 84 70 61 51 45 41 38 38 39
125 129 136 141 135 128 141 145 140 136 142 146 147 141 135 125 106 88 74 59 50 44 42 41 40 39 40
133 133 135 139 139 146 139 138 142 141 142 144 150 138 131 103 92 75 59 49 42 39 38 40 39 39 40
138 145 153 148 149 148 147 148 146 151 141 135 129 124 102 89 76 61 53 46 40 36 35 34 37 41 43
149 152 142 144 150 157 153 143 142 128 137 135 119 97 90 77 63 55 49 42 38 35 33 34 38 39 40
151 155 150 142 141 145 143 134 115 136 129 106 90 86 78 63 55 48 41 37 35 32 31 33 35 36 37
152 153 156 150 149 152 149 120 130 133 104 90 81 75 63 54 46 40 37 34 31 28 28 30 33 34 35
154 154 154 150 149 153 145 120 121 101 88 78 70 62 54 46 39 34 32 31 29 27 26 28 29 32 33
160 156 157 160 152 128 106 91 86 84 75 66 59 52 47 42 34 30 27 27 25 26 25 27 29 31 33
124 121 118 117 108 97 87 77 77 71 63 56 49 44 40 38 34 31 28 26 25 25 24 25 27 28 31
98 99 98 95 88 82 72 68 64 61 54 46 42 39 37 36 34 32 32 32 31 29 27 27 29 30 31
82 81 80 76 71 66 65 59 56 53 45 41 38 37 35 35 33 32 32 32 32 33 33 33 33 33 34
72 72 67 62 59 58 55 52 49 44 41 39 36 36 35 34 32 31 31 31 31 31 32 33 33 36 38

GFSFLT2_250_spd_087.txt.gz
Wind_Speed
97 97 97 101 104 107 106 99 100 102 103 100 101 101 102 105 113 125 125 128 139 136 115 116 82 69 46
101 101 107 105 106 105 103 101 104 102 105 105 103 102 116 113 124 127 128 133 134 127 120 102 82 57 40
110 109 109 107 100 101 106 105 103 104 105 109 107 106 118 122 129 132 126 124 134 120 102 79 68 49 38
105 104 110 106 103 101 108 107 110 109 110 111 114 120 120 131 134 128 128 133 116 110 82 77 58 42 35
108 107 105 105 106 110 109 108 113 117 118 120 123 120 136 140 137 132 131 118 114 97 92 64 48 37 34
110 109 113 113 113 113 112 117 116 122 126 127 124 138 144 133 130 130 131 112 101 94 71 53 45 37 35
114 120 118 120 119 125 120 121 122 127 135 133 136 147 145 140 134 133 122 112 102 82 60 50 42 37 35
122 121 128 122 125 123 129 129 130 135 141 140 144 146 140 136 125 113 109 103 84 67 52 44 39 34 33
128 131 119 124 133 141 134 137 148 148 152 144 150 147 147 133 117 118 101 88 71 57 46 38 36 33 32
141 134 138 151 148 138 143 148 148 156 140 137 143 139 120 111 109 87 75 66 58 49 40 36 33 31 32
144 150 150 149 143 146 153 152 151 149 144 131 135 115 99 84 79 71 61 56 51 42 35 33 31 29 32
161 161 159 152 146 145 149 144 130 127 132 115 97 81 77 68 64 59 51 46 44 37 32 28 27 27 28
128 133 140 140 135 122 116 112 108 99 96 85 73 67 62 57 57 49 43 41 37 33 29 24 23 24 26
110 108 103 97 96 91 87 85 83 82 76 68 60 54 51 53 46 42 39 35 32 30 26 24 23 22 24
104 99 92 88 85 79 74 73 73 69 63 56 50 49 49 44 39 36 35 31 31 28 25 26 25 27 28
105 99 91 82 71 66 65 64 63 59 53 47 48 48 44 39 35 33 32 32 31 29 29 28 28 27 29
95 87 76 65 59 57 57 56 58 52 47 47 45 43 39 36 33 32 33 32 29 27 27 26 28 29 30